Miscellaneous Local Product
Issued by NWS Hastings, NE

Home | Current Version | Previous Version | Graphics & Text | Print | Product List | Glossary On
Versions: 1 2 3 4 5 6 7 8 9 10 11 12 13 14 15 16 17 18 19 20 21 22 23 24 25 26 27 28 29 30 31 32 33 34 35 36 37 38 39 40 41 42 43 44 45 46 47 48 49 50
679
AXUS43 KGID 280302
MISGRI

GID CWA HOURLY WEATHER ROUNDUP
NATIONAL WEATHER SERVICE HASTINGS NE
1000 PM CDT TUE JUN 27 2017

NOTE: "FAIR" INDICATES FEW OR NO CLOUDS BELOW 12,000 FEET WITH NO
SIGNIFICANT WEATHER AND/OR OBSTRUCTIONS TO VISIBILITY.

...SOUTH CENTRAL NEBRASKA...

CITY           SKY/WX    TMP DP  RH WIND       PRES   REMARKS
GRAND ISLAND   CLOUDY    79  72  79 SE22G29   29.67F
HASTINGS       MOCLDY    82  65  56 S13G21    29.69F
KEARNEY        CLOUDY    82  64  54 S18G24    29.66F
ORD            CLOUDY    78  67  68 SE15G22   29.64F
YORK           CLOUDY    77  70  78 S17       29.71F
AURORA         CLOUDY    78  71  79 SE17G26   29.69F
LEXINGTON      LGT RAIN  75  57  53 NW41G61   29.73R
HOLDREGE       CLOUDY    84  59  42 S22G35    29.65F
HEBRON         CLOUDY    81  69  68 S15G24    29.74R

...NEBRASKA PANHANDLE...

CITY           SKY/WX    TMP DP  RH WIND       PRES   REMARKS
CHADRON        CLOUDY    66  60  81 SE7       29.71F
ALLIANCE       TSTM      62  55  77 NE21      29.74F
SCOTTSBLUFF    CLOUDY    72  49  44 N10       29.75F
SIDNEY         CLOUDY    65  53  65 N20G30    29.82R

...WESTERN AND NORTH CENTRAL NEBRASKA...

CITY           SKY/WX    TMP DP  RH WIND       PRES   REMARKS
VALENTINE      CLOUDY    76  49  38 NW13      29.70R
AINSWORTH      LGT RAIN  77  66  68 N5        29.70R
ONEILL         LGT RAIN  77  68  75 S13       29.67R
BROKEN BOW     TSTM      68  57  68 W23G32    29.77S
IMPERIAL       CLOUDY    78  44  29 CALM      29.64F
NORTH PLATTE   CLOUDY    66  60  81 SE18G28   29.63F
MCCOOK         CLOUDY    82  55  39 NW9       29.69R

...EASTERN NEBRASKA...

CITY           SKY/WX    TMP DP  RH WIND       PRES   REMARKS
NORFOLK        PTCLDY    75  65  70 SE17G29   29.69F
SO SIOUX CITY  CLOUDY    75  65  70 S20G28    29.73F
TEKAMAH        CLOUDY    76  63  64 SE22G28   29.75F
COLUMBUS       CLOUDY    76  68  76 SE18G25   29.71F
ALBION         CLOUDY    78  67  69 SE14G21   29.69S
OMAHA EPPLEY   CLOUDY    77  65  66 SE21      29.78S
OFFUTT AFB     CLOUDY    76  65  68 SE15      29.78R
MILLARD        CLOUDY    79  69  70 SE15G24   29.77S
LINCOLN        PTCLDY    77  66  68 S21G29    29.75R
NEBRASKA CITY  PTCLDY    75  68  79 S13       29.81S
BEATRICE       CLOUDY    77  67  72 SE16G22   29.76F
FALLS CITY     CLEAR     74  66  76 SE15      29.82S

...NORTHERN KANSAS...

CITY           SKY/WX    TMP DP  RH WIND       PRES   REMARKS
GOODLAND       CLOUDY    76  55  48 S21       29.73S
HILL CITY      MOCLDY    86  60  41 S17G26    29.69R
NORTON         CLEAR     88  52  29 S24       29.66S
PHILLIPSBURG   CLEAR     86  61  42 SE17G26   29.67F
SMITH CENTER   PTCLDY    84  61  45 S20G28    29.71R
HAYS           CLOUDY    84  63  49 S23       29.73S
RUSSELL        MOCLDY    85  60  42 S22G30    29.73S
CONCORDIA      PTCLDY    80  69  69 S22G30    29.75S
SALINA         CLOUDY    83  67  58 S17       29.78R
TOPEKA         CLEAR     77  66  68 SE10      29.85S



USA.gov is the U.S. government's official web portal to all federal, state and local government web resources and services.